Regional Weather Roundup
Issued by NWS Glasgow, MT

Home | Current Version | Previous Version | Text Only | Print | Product List | Glossary On
Versions: 1 2 3 4 5 6 7 8 9 10 11 12 13 14 15 16 17 18 19 20 21 22 23 24 25 26 27
000
ASUS45 KGGW 281315
RWRGGW
HOURLY REGIONAL WEATHER ROUNDUP FOR NORTHEAST MONTANA
NATIONAL WEATHER SERVICE GLASGOW MONTANA
700 AM MDT SAT MAY 28 2016

NOTE: "FAIR" INDICATES FEW OR NO CLOUDS BELOW 12,000 FEET WITH NO
SIGNIFICANT WEATHER AND/OR OBSTRUCTIONS TO VISISBILITY.

NORTHEAST MONTANA


CITY           SKY/WX    TMP DP  RH WIND       PRES   REMARKS
GLASGOW        LGT RAIN  52  52 100 S9        29.87S FOG
PLENTYWOOD       N/A     52  49  89 E12         N/A
WOLF POINT     CLOUDY    58  53  84 E12       29.87R
JORDAN           N/A     53  52  96 W8        29.89R
WINNETT          N/A     52  46  80 SW3G12      N/A
SIDNEY         CLOUDY    56  54  93 NE3       29.88R
GLENDIVE       MOSUNNY   52  50  93 NE7       29.89S
MALTA            N/A     50  50 100 W10         N/A
SCOBEY           N/A     53  48  83 E12       29.88R HAZE
OPHEIM           N/A     50  50 100 SE7       29.71R

FORT PECK REPORTS


CITY           SKY/WX    TMP DP  RH WIND       PRES   REMARKS
FORT PECK        N/A     52  52 100 SE10        N/A
THE PINES        N/A     52  49  89 NW5         N/A

SOUTHEAST MONTANA


CITY           SKY/WX    TMP DP  RH WIND       PRES   REMARKS
BILLINGS       LGT RAIN  51  44  77 SW6       29.98R
MILES CITY     CLOUDY    53  49  86 W9        29.89R
BAKER          CLOUDY    52  48  86 SE3       29.88S
LIVINGSTON     CLOUDY    46  42  86 W7        30.00R

CENTRAL MONTANA


CITY           SKY/WX    TMP DP  RH WIND       PRES   REMARKS
HAVRE          MOSUNNY   48  43  82 SW8       29.92R
LEWISTOWN      MOSUNNY   48  41  76 W5        29.96S
GREAT FALLS    SUNNY     44  35  70 S7        29.96R
CUT BANK       PTSUNNY   40  32  73 W5        29.93R
HELENA         SUNNY     43  35  73 CALM      30.01R
BUTTE          CLOUDY    34  32  92 S3        30.04R
BOZEMAN        CLOUDY    42  40  92 S5        30.02R

WESTERN MONTANA


CITY           SKY/WX    TMP DP  RH WIND       PRES   REMARKS
MISSOULA       CLOUDY    40  36  86 CALM      30.06R
KALISPELL      NOT AVBL

NORTH DAKOTA


CITY           SKY/WX    TMP DP  RH WIND       PRES   REMARKS
WILLISTON      CLOUDY    56  52  86 E9        29.89S
DICKINSON      FOG       50  50 100 E7        29.86R VSB 1
MINOT          CLOUDY    57  53  86 N8        29.89S
BISMARCK       CLOUDY    58  55  90 E8        29.87S FOG

SOUTHERN SASKATCHEWAN


CITY           SKY/WX    TMP DP  RH WIND       PRES   REMARKS
REGINA         CLOUDY    50  48  93 E14       29.94R
ESTEVAN        CLOUDY    50  48  93 E10       29.92S
SWIFT CURRENT  LGT RAIN  52  52 100 SE8G17    29.85R





USA.gov is the U.S. government's official web portal to all federal, state and local government web resources and services.